Location: NJAA Observatory
(40.6819°N, 74.8979°W)
Time: 19:45:05
(UTC-04:00)

Courier 1B - All Passes

Search period start: 18 September 2014 00:00
Search period end: 28 September 2014 00:00
Orbit: 963 x 1209 km, 28.3° (Epoch: 18 September)

Date Brightness Start Highest point End Pass type
(mag) Time Alt. Az. Time Alt. Az. Time Alt. Az.
18 Sep - 01:35:33 10° SW 01:41:04 25° SSE 01:46:51 10° ESE night (unlit)
18 Sep - 03:28:09 10° WSW 03:34:26 32° S 03:41:00 10° ESE visible
18 Sep - 05:22:01 10° WSW 05:27:53 25° SSW 05:33:54 10° SE visible
18 Sep - 07:18:46 10° SW 07:21:05 12° SSW 07:23:26 10° S daylight
19 Sep - 00:42:34 10° SSW 00:47:32 21° SSE 00:52:42 10° ESE night (unlit)
19 Sep - 02:34:41 10° SW 02:40:47 31° S 02:47:11 10° ESE visible
19 Sep - 04:28:11 10° WSW 04:34:13 27° S 04:40:28 10° SE visible
19 Sep - 06:23:31 10° SW 06:27:30 15° SSW 06:31:33 10° S daylight
19 Sep - 23:49:53 10° SSW 23:54:02 17° SSE 23:58:20 10° ESE night (unlit)
20 Sep - 01:41:20 10° SW 01:47:10 29° S 01:53:18 10° ESE night (unlit)
20 Sep - 03:34:30 10° WSW 03:40:34 29° S 03:46:54 10° SE visible
20 Sep - 05:29:05 10° WSW 05:33:54 18° SSW 05:38:50 10° SSE visible
20 Sep - 22:57:40 10° S 23:00:36 13° SSE 23:03:35 10° SE night (unlit)
21 Sep - 00:48:07 10° SW 00:53:36 26° SSE 00:59:21 10° ESE night (unlit)
21 Sep - 02:40:56 10° WSW 02:46:56 30° S 02:53:14 10° SE visible
21 Sep - 04:35:00 10° WSW 04:40:17 21° SSW 04:45:45 10° SSE visible
21 Sep - 23:55:02 10° SSW 00:00:05 23° SSE 00:05:19 10° ESE night (unlit)
22 Sep - 01:47:27 10° WSW 01:53:19 30° S 01:59:29 10° ESE night (unlit)
22 Sep - 03:41:08 10° WSW 03:46:40 24° SSW 03:52:27 10° SE visible
22 Sep - 05:37:33 10° SW 05:39:53 12° SSW 05:42:14 10° S visible
22 Sep - 23:02:09 10° SSW 23:06:36 19° SSE 23:11:11 10° ESE night (unlit)
23 Sep - 00:54:04 10° SW 00:59:44 29° S 01:05:41 10° ESE night (unlit)
23 Sep - 02:47:25 10° WSW 02:53:04 26° S 02:58:59 10° SE visible
23 Sep - 04:42:32 10° SW 04:46:19 15° SSW 04:50:11 10° S visible
23 Sep - 22:09:34 10° SSW 22:13:10 15° SSE 22:16:49 10° SE night (unlit)
24 Sep - 00:00:47 10° SW 00:06:12 27° S 00:11:51 10° ESE night (unlit)
24 Sep - 01:53:49 10° WSW 01:59:29 28° S 02:05:25 10° SE night (unlit)
24 Sep - 03:48:14 10° WSW 03:52:45 18° SSW 03:57:24 10° SSE visible
24 Sep - 21:17:39 10° S 21:19:45 12° SSE 21:21:52 10° SE visible
24 Sep - 23:07:36 10° SW 23:12:42 24° SSE 23:17:58 10° ESE night (unlit)
25 Sep - 01:00:19 10° WSW 01:05:55 29° S 01:11:47 10° SE night (unlit)
25 Sep - 02:54:15 10° WSW 02:59:11 21° SSW 03:04:19 10° SSE night (unlit)
25 Sep - 22:14:34 10° SSW 22:19:14 21° SSE 22:24:00 10° ESE visible
26 Sep - 00:06:53 10° SW 00:12:22 28° S 00:18:06 10° ESE night (unlit)
26 Sep - 02:00:28 10° WSW 02:05:38 23° SSW 02:11:01 10° SE night (unlit)
26 Sep - 03:56:50 10° SW 03:58:46 11° SSW 04:00:44 10° S visible
26 Sep - 21:21:42 10° SSW 21:25:47 18° SSE 21:29:55 10° ESE visible
26 Sep - 23:13:31 10° SW 23:18:52 27° S 23:24:23 10° ESE night (unlit)
27 Sep - 01:06:48 10° WSW 01:12:05 25° S 01:17:36 10° SE night (unlit)
27 Sep - 03:01:50 10° SW 03:05:15 14° SSW 03:08:45 10° S night (unlit)
27 Sep - 20:29:09 10° S 20:32:22 14° SSE 20:35:35 10° SE visible
27 Sep - 22:20:13 10° SW 22:25:22 25° S 22:30:38 10° ESE visible
